Previsão horária em Al Hillah

Hoje, 25 Janeiro, Segunda-feira

Tempo Temperatura Precipitação Vento Pressão Humidade
00:00 +9°C° 0 mm 2 m/s 764 mmHg 35%
01:00 +9°C° 0 mm 2 m/s 764 mmHg 35%
02:00 +9°C° 0 mm 2 m/s 763 mmHg 35%
03:00 +9°C° 0 mm 2 m/s 763 mmHg 35%
04:00 +8°C° 0 mm 2 m/s 763 mmHg 35%
05:00 +8°C° 0 mm 2 m/s 763 mmHg 34%
06:00 +8°C° 0 mm 2 m/s 763 mmHg 34%
07:00 +10°C° 0 mm 1 m/s 764 mmHg 31%
08:00 +12°C° 0 mm 1 m/s 764 mmHg 28%
09:00 +13°C° 0 mm 1 m/s 764 mmHg 25%
10:00 +15°C° 0 mm 1 m/s 764 mmHg 22%
11:00 +18°C° 0 mm 1 m/s 764 mmHg 19%
12:00 +19°C° 0 mm 1 m/s 764 mmHg 16%
13:00 +20°C° 0 mm 1 m/s 764 mmHg 15%
14:00 +21°C° 0 mm 1 m/s 763 mmHg 15%
15:00 +21°C° 0 mm 1 m/s 763 mmHg 14%
16:00 +19°C° 0 mm 2 m/s 763 mmHg 17%
17:00 +18°C° 0 mm 2 m/s 763 mmHg 19%
18:00 +16°C° 0 mm 2 m/s 763 mmHg 22%
19:00 +16°C° 0 mm 2 m/s 763 mmHg 23%
20:00 +15°C° 0 mm 2 m/s 763 mmHg 24%
21:00 +14°C° 0 mm 2 m/s 763 mmHg 25%
22:00 +14°C° 0 mm 2 m/s 763 mmHg 26%
23:00 +13°C° 0 mm 2 m/s 763 mmHg 27%

Amanhã, 26 Janeiro, Terça-feira

Tempo Temperatura Precipitação Vento Pressão Humidade
00:00 +12°C° 0 mm 3 m/s 763 mmHg 28%
01:00 +13°C° 0 mm 2 m/s 763 mmHg 28%
02:00 +12°C° 0 mm 2 m/s 763 mmHg 28%
03:00 +12°C° 0 mm 2 m/s 763 mmHg 28%
04:00 +12°C° 0 mm 2 m/s 763 mmHg 28%
05:00 +10°C° 0 mm 2 m/s 763 mmHg 28%
06:00 +10°C° 0 mm 2 m/s 763 mmHg 29%
07:00 +12°C° 0 mm 2 m/s 763 mmHg 26%
08:00 +14°C° 0 mm 2 m/s 764 mmHg 24%
09:00 +15°C° 0 mm 1 m/s 764 mmHg 21%
10:00 +16°C° 0 mm 1 m/s 764 mmHg 20%
11:00 +19°C° 0 mm 1 m/s 764 mmHg 18%
12:00 +20°C° 0 mm 1 m/s 763 mmHg 16%
13:00 +21°C° 0 mm 1 m/s 763 mmHg 16%
14:00 +20°C° 0 mm 2 m/s 763 mmHg 16%
15:00 +21°C° 0 mm 2 m/s 762 mmHg 15%
16:00 +19°C° 0 mm 2 m/s 762 mmHg 17%
17:00 +18°C° 0 mm 2 m/s 762 mmHg 19%
18:00 +16°C° 0 mm 2 m/s 762 mmHg 22%
19:00 +16°C° 0 mm 2 m/s 762 mmHg 23%
20:00 +15°C° 0 mm 2 m/s 762 mmHg 23%
21:00 +14°C° 0 mm 2 m/s 762 mmHg 24%
22:00 +14°C° 0 mm 1 m/s 762 mmHg 25%
23:00 +13°C° 0 mm 1 m/s 762 mmHg 26%

Depois de amanhã, 27 Janeiro, Quarta-feira

Tempo Temperatura Precipitação Vento Pressão Humidade
00:00 +12°C° 0 mm 1 m/s 762 mmHg 26%
01:00 +12°C° 0 mm 1 m/s 761 mmHg 27%
02:00 +12°C° 0 mm 1 m/s 761 mmHg 27%
03:00 +12°C° 0 mm 1 m/s 761 mmHg 27%
04:00 +12°C° 0 mm 1 m/s 761 mmHg 27%
05:00 +12°C° 0 mm 2 m/s 761 mmHg 27%
06:00 +12°C° 0 mm 2 m/s 760 mmHg 27%
07:00 +14°C° 0 mm 2 m/s 760 mmHg 25%
08:00 +15°C° 0 mm 2 m/s 760 mmHg 23%
09:00 +17°C° 0 mm 3 m/s 761 mmHg 21%
10:00 +19°C° 0 mm 4 m/s 760 mmHg 19%
11:00 +21°C° 0 mm 5 m/s 759 mmHg 16%
12:00 +23°C° 0 mm 6 m/s 759 mmHg 14%
13:00 +24°C° 0 mm 7 m/s 758 mmHg 14%
14:00 +26°C° 0 mm 8 m/s 757 mmHg 13%
15:00 +26°C° 0 mm 9 m/s 756 mmHg 13%
16:00 +24°C° 0 mm 9 m/s 756 mmHg 14%
17:00 +23°C° 0 mm 8 m/s 755 mmHg 15%
18:00 +22°C° 0 mm 8 m/s 755 mmHg 17%
19:00 +22°C° 0 mm 9 m/s 755 mmHg 17%
20:00 +21°C° 0 mm 9 m/s 754 mmHg 17%
21:00 +21°C° 0 mm 10 m/s 754 mmHg 17%
22:00 +21°C° 0 mm 10 m/s 754 mmHg 18%
23:00 +21°C° 0 mm 10 m/s 754 mmHg 19%

28 Janeiro, Quinta-feira

Tempo Temperatura Precipitação Vento Pressão Humidade
00:00 +19°C° 0 mm 10 m/s 753 mmHg 20%
01:00 +19°C° 0 mm 9 m/s 753 mmHg 23%
02:00 +18°C° 0 mm 8 m/s 753 mmHg 25%
03:00 +18°C° 0 mm 7 m/s 753 mmHg 27%
04:00 +17°C° 0 mm 6 m/s 754 mmHg 30%
05:00 +16°C° 0 mm 5 m/s 754 mmHg 33%
06:00 +15°C° 0 mm 4 m/s 754 mmHg 36%
07:00 +17°C° 0 mm 4 m/s 755 mmHg 36%
08:00 +18°C° 0 mm 4 m/s 755 mmHg 35%
09:00 +18°C° 0 mm 4 m/s 756 mmHg 35%
10:00 +19°C° 0 mm 5 m/s 756 mmHg 32%
11:00 +21°C° 0 mm 5 m/s 756 mmHg 30%
12:00 +22°C° 0 mm 6 m/s 756 mmHg 27%
13:00 +22°C° 0 mm 6 m/s 756 mmHg 26%
14:00 +22°C° 0 mm 5 m/s 755 mmHg 25%
15:00 +22°C° 0 mm 5 m/s 755 mmHg 24%
16:00 +21°C° 0 mm 4 m/s 755 mmHg 27%
17:00 +20°C° 0 mm 3 m/s 755 mmHg 30%
18:00 +19°C° 0 mm 3 m/s 756 mmHg 33%
19:00 +18°C° 0 mm 2 m/s 756 mmHg 34%
20:00 +18°C° 0 mm 2 m/s 757 mmHg 36%
21:00 +17°C° 0 mm 2 m/s 757 mmHg 38%

29 Janeiro, Sexta-feira

Tempo Temperatura Precipitação Vento Pressão Humidade

30 Janeiro, Sábado

Tempo Temperatura Precipitação Vento Pressão Humidade
Mostrar mais

Necessitamos do seu Consentimento

A Meteoprog e os seus Fornecedores de Serviços podem armazenar e aceder a dados pessoais como cookies, identificadores do dispositivo ou outras tecnologias semelhantes existentes no seu dispositivo e processar estes dados para personalizar conteúdos e anúncios, assim como funcionalidades nas redes sociais e análise de tráfego.

  • Armazenar e/ou aceder a informações no seu dispositivo

    Os cookies, identificadores do dispositivo ou outras informações podem ser armazenados ou acedidos no seu dispositivo, para os fins acima indicados.

  • Anúncios e conteúdos personalizados, medição de anúncios e conteúdos, dados sobre o público-alvo e desenvolvimento de produtos

    Os anúncios e os conteúdos podem ser personalizados com base num perfil. Podem ser adicionados dados adicionais para uma maior personalização dos anúncios e dos conteúdos. A eficácia dos anúncios e dos conteúdos pode ser medida. Podem ser obtidas informações sobre o público que visualizou os anúncios e os conteúdos. Estes dados podem ser usados para desenvolver ou melhorar sistemas, softwares ou a experiência do utilizador.

Ao clicar em "Eu concordo”, permitirá o uso de cookies, identificadores do dispositivo e web beacons mencionados ou outras tecnologias semelhantes. As configurações do navegador do seu dispositivo podem ser alteradas.

Para certos fins, podem ser invocados interesses legítimos ao invés de consentimento. Pode ler mais informação sobre este assunto na nossa Política de Privacidade e Cookies.